Snowfall_Accumulation
nan nan nan nan nan nan nan nan nan nan nan nan nan nan nan nan nan 0.0 0.0 0.0 0.0 0.1 0.1 0.0 0.0 0.0 0.0 0.0 0.4 0.0 0.5 0.2 0.2 0.3 0.9 0.5 0.2 0.0 0.0 0.0 0.0 0.0 0.3 0.6 0.4 1.9 2.1 0.0 0.0 0.0 0.1 0.0 0.0 0.0
nan nan nan nan nan nan nan nan nan nan nan nan nan nan nan nan nan nan 0.0 0.0 0.0 0.0 0.4 0.0 0.0 0.0 0.0 0.0 0.0 0.0 0.1 0.0 0.0 0.2 0.3 0.1 0.2 0.0 0.0 0.4 0.0 0.3 0.0 0.3 0.1 0.2 0.0 0.0 0.0 0.0 0.0 0.0 0.0 0.0
nan nan nan nan nan nan nan nan nan nan nan nan nan nan nan nan nan nan 0.0 0.0 0.0 0.2 0.4 0.2 0.1 0.0 0.0 0.0 0.0 0.1 0.0 0.0 0.0 0.0 0.0 0.0 0.0 0.0 0.2 0.0 0.0 0.0 0.0 0.1 0.0 0.0 0.0 0.0 0.0 0.0 0.0 0.0 0.0 0.0
nan nan nan nan nan nan nan nan nan nan nan nan nan nan nan nan nan nan 0.0 0.0 0.0 0.0 3.5 1.1 0.0 0.0 0.0 0.0 0.0 0.0 0.0 0.0 0.0 0.0 0.1 0.2 0.5 0.0 0.1 0.0 0.0 0.0 0.0 0.0 0.0 0.0 0.0 0.0 0.0 0.0 0.0 0.0 0.0 0.0
nan nan nan nan nan nan nan nan nan nan nan nan nan nan nan nan nan nan 0.0 0.0 0.0 0.2 4.5 1.2 0.0 0.0 0.0 0.0 0.0 0.0 0.0 0.0 0.0 0.1 0.3 0.2 0.0 0.0 0.1 0.1 0.1 0.0 0.0 0.3 0.2 0.0 0.0 0.0 0.0 0.0 0.0 0.0 0.0 0.0
nan nan nan nan nan nan nan nan nan nan nan nan nan nan nan nan nan 0.0 0.3 0.0 0.0 0.0 1.3 4.4 0.4 0.0 0.0 0.0 0.0 0.0 0.0 0.0 0.0 0.0 0.2 0.0 0.0 0.0 0.4 0.3 0.0 0.0 0.0 0.0 0.0 0.0 0.0 0.0 0.0 0.0 0.0 0.0 0.0 0.0
nan nan nan nan nan nan nan nan nan nan nan nan nan nan nan nan 0.0 0.0 0.0 0.0 nan 0.0 1.3 7.6 1.8 0.1 0.0 0.0 0.0 0.0 0.0 0.0 0.0 0.1 0.3 0.1 0.0 0.0 0.4 0.2 0.0 0.0 0.0 0.0 0.0 0.0 0.0 0.0 0.0 0.0 0.0 0.0 0.0 0.0
nan nan nan nan nan nan nan nan nan nan nan nan nan nan nan nan nan 0.0 0.0 nan nan 0.0 0.4 6.9 4.2 0.3 0.0 0.4 0.5 0.0 0.2 0.1 0.1 0.1 0.2 0.1 0.0 0.2 0.4 0.0 0.0 0.0 0.0 0.0 0.0 0.0 0.0 0.0 0.0 0.0 0.0 0.0 0.0 0.0
nan nan nan nan nan nan nan nan nan nan nan nan nan nan 0.0 0.0 0.1 0.0 nan nan 0.0 0.3 6.6 3.0 1.0 4.0 0.0 0.1 0.1 0.2 0.1 1.2 0.1 0.3 0.1 0.0 0.2 0.4 0.0 0.0 0.0 0.0 0.0 0.0 0.0 0.0 0.0 0.0 0.0 0.0 0.0 0.0 0.0 0.0
nan nan nan nan nan nan nan nan nan nan nan nan 0.0 0.2 21.5 0.3 nan nan 0.0 0.4 0.8 0.2 0.3 1.2 0.0 0.7 0.1 0.2 0.8 0.8 0.2 1.3 2.4 0.2 0.0 0.2 0.0 0.0 0.0 0.0 0.0 0.0 0.0 0.0 0.0 0.0 0.0 0.0 0.0 0.0 0.0 0.0 0.0 0.0
nan nan nan nan nan nan nan nan nan nan nan 0.0 13.6 9.1 0.1 nan 0.0 1.5 24.7 19.9 17.6 13.5 0.4 0.0 0.0 0.5 0.0 1.0 1.2 0.1 1.0 0.9 3.3 0.6 0.4 0.3 0.3 0.2 0.0 0.0 0.0 0.0 0.0 0.0 0.0 0.0 0.0 0.0 0.0 0.0 0.0 0.0 0.0 0.0
nan nan nan nan nan nan nan nan nan 0.0 0.0 0.1 0.2 0.0 0.0 2.6 13.4 26.6 16.8 10.8 5.6 2.8 0.2 0.0 0.0 0.1 0.1 0.0 0.6 1.2 0.8 0.8 1.0 0.0 1.9 0.9 0.2 0.0 0.0 0.0 0.0 0.0 0.0 0.0 0.0 0.0 0.0 0.0 0.0 0.0 0.0 0.0 0.0 0.0
nan nan nan nan nan nan nan nan nan nan nan 0.0 0.1 5.2 9.9 17.8 48.5 15.0 17.4 7.7 3.2 0.4 0.1 0.0 0.5 0.0 0.2 0.0 0.2 0.1 1.1 3.6 0.0 3.2 0.4 0.2 0.0 0.0 0.0 0.0 0.0 0.0 0.0 0.0 0.0 0.0 0.0 0.0 0.0 0.0 0.0 0.0 0.0 0.0
nan nan nan nan nan nan nan nan nan 0.0 0.0 4.8 12.0 42.0 13.7 12.2 3.3 0.6 0.2 0.3 0.1 0.1 0.1 0.0 0.1 0.1 0.1 0.4 0.2 0.3 0.1 0.1 3.2 0.5 0.5 0.3 0.0 0.0 0.0 0.0 0.0 0.0 0.0 0.0 0.0 0.0 0.0 0.0 0.0 0.0 0.1 0.3 0.2 0.4
nan nan nan nan nan nan nan nan nan 0.0 0.1 9.8 3.7 25.8 3.5 0.3 0.2 0.2 0.0 0.0 0.0 0.0 0.1 0.2 0.5 0.5 1.0 1.4 0.3 0.1 1.9 1.0 0.3 0.5 0.3 0.1 0.0 0.0 0.0 0.0 0.0 0.0 0.0 0.0 0.0 0.0 0.1 0.2 0.1 0.1 0.4 0.0 0.0 1.9
nan nan 0.0 nan nan nan nan nan 0.0 0.0 1.1 2.6 2.7 1.9 0.2 0.8 1.5 0.7 0.2 0.1 0.0 0.2 0.0 0.3 0.9 3.2 2.9 0.5 0.5 0.1 0.1 0.2 0.3 0.2 0.1 0.0 0.0 0.0 0.0 0.0 0.0 0.0 0.0 0.0 0.0 0.0 0.0 0.3 0.3 0.0 0.0 0.0 2.3 1.4
nan 0.3 nan nan nan nan nan 0.0 0.4 6.1 5.5 1.7 3.6 0.3 0.3 0.3 0.5 0.4 0.1 0.0 0.0 0.4 2.2 3.2 1.6 0.6 0.5 0.9 0.0 0.2 1.2 0.7 0.2 0.1 0.1 0.0 0.0 0.0 0.0 0.0 0.0 0.0 0.0 0.0 0.0 0.0 0.0 0.0 0.0 0.0 0.0 0.0 0.0 0.0
0.1 0.0 nan nan nan nan 0.6 0.5 3.8 5.1 6.1 0.7 4.1 0.7 0.3 0.3 0.4 0.3 0.1 0.0 0.3 0.9 0.8 2.4 1.0 0.3 1.1 0.1 0.4 0.2 0.1 0.1 0.1 0.1 0.1 0.0 0.0 0.0 0.0 0.0 0.0 0.0 0.0 0.0 0.0 0.0 0.0 0.0 0.0 0.1 0.0 0.0 0.0 0.0
0.0 0.0 nan nan 0.0 0.7 8.1 4.3 0.7 3.7 2.6 0.5 0.2 0.2 0.2 0.3 0.1 0.0 0.0 0.0 0.0 0.0 0.9 1.0 2.1 0.4 0.2 0.1 0.2 0.2 0.2 0.1 0.1 0.2 0.1 0.0 0.0 0.0 0.0 0.0 0.0 0.0 0.0 0.0 0.0 0.1 0.1 0.0 0.1 0.1 0.1 0.1 0.1 0.1
nan nan nan nan nan 0.1 2.6 4.5 0.0 0.8 1.1 1.2 0.0 0.2 0.2 0.2 0.1 0.2 0.1 0.0 0.0 0.2 1.1 0.7 0.3 0.1 0.1 0.1 0.1 0.1 0.1 0.1 0.0 0.2 0.2 0.2 0.2 0.0 0.0 0.0 0.1 0.0 0.0 0.0 0.1 0.0 0.0 0.0 0.0 0.0 0.1 0.1 0.3 0.4
nan nan nan 0.0 0.7 0.0 0.0 1.6 0.3 0.8 0.5 0.8 0.3 0.0 1.8 0.3 0.7 1.3 1.3 0.0 1.3 0.7 0.7 0.2 0.2 0.2 0.1 0.2 0.1 0.1 0.1 0.0 0.1 0.0 0.1 0.2 0.2 0.1 0.1 0.1 0.1 0.1 0.1 0.1 0.2 0.2 0.1 0.1 0.1 0.1 0.9 2.1 0.8 0.6
0.0 nan 0.1 0.0 0.5 0.5 0.9 0.0 0.1 0.0 0.4 0.8 0.2 0.1 1.9 3.9 3.4 2.2 0.5 1.8 1.1 0.2 0.2 0.2 0.2 0.1 0.2 0.1 0.1 0.0 0.0 0.0 0.0 0.1 0.0 0.0 0.1 0.1 0.1 0.1 0.1 0.2 0.2 0.3 0.2 0.3 0.2 0.0 0.1 0.2 0.9 2.9 0.7 0.9
nan 0.0 0.1 0.3 3.2 8.5 20.8 0.0 0.6 0.1 1.6 1.2 0.5 1.0 1.7 2.4 1.7 0.2 3.6 0.7 0.3 0.2 0.2 0.2 0.0 0.0 0.1 0.0 0.0 0.0 0.0 0.0 0.0 0.1 0.1 0.1 0.0 0.1 0.1 0.2 0.2 0.5 0.5 0.3 0.2 0.3 0.4 0.1 0.6 2.3 1.2 1.7 1.8 7.3
nan 0.8 7.3 4.1 5.3 19.4 1.3 3.3 0.3 0.6 0.6 1.5 1.6 1.2 0.6 1.7 0.5 2.1 2.3 0.7 0.2 0.1 0.1 0.0 0.0 0.1 0.1 0.0 0.0 0.1 0.0 0.0 0.0 0.0 0.0 0.0 0.1 0.1 0.1 0.1 0.1 0.2 0.2 0.2 0.3 0.5 0.7 3.2 3.5 1.2 4.9 9.8 13.1 12.2
14.7 21.9 5.4 38.3 1.3 6.3 5.1 1.6 0.6 0.8 1.9 2.0 1.2 1.6 2.9 0.3 3.0 2.0 1.4 1.4 0.2 0.3 0.2 0.1 0.0 0.0 0.0 0.1 0.0 0.0 0.0 0.0 0.0 0.1 0.0 0.0 0.1 0.1 0.1 0.1 0.1 0.1 0.2 1.1 2.2 4.4 5.9 6.1 5.7 5.8 3.7 12.8 4.6 5.7
37.1 9.3 27.0 1.0 3.6 1.9 0.9 3.4 3.4 3.5 1.8 2.4 0.9 1.1 0.4 1.4 2.7 3.7 1.3 0.5 0.4 0.3 1.6 0.6 0.2 0.1 0.1 0.0 0.0 0.1 0.1 0.0 0.1 0.1 0.1 0.0 0.1 0.4 0.9 1.0 0.7 0.5 0.3 0.7 2.4 7.0 5.1 6.4 8.2 4.1 8.3 4.5 6.9 11.8
31.3 10.1 0.4 0.0 0.0 0.0 2.5 1.9 0.2 1.2 2.4 3.8 1.1 1.6 1.7 8.1 4.7 1.3 0.7 0.3 0.3 0.3 0.2 0.2 0.1 0.1 0.1 0.1 0.1 0.2 0.2 0.2 0.1 0.2 0.2 0.1 0.2 0.2 0.5 2.2 1.1 0.6 0.3 0.8 1.7 7.4 9.0 9.8 10.9 7.2 9.6 9.7 11.0 12.9
2.0 0.2 7.0 0.6 2.9 0.2 2.8 2.2 2.1 2.4 0.3 0.4 1.2 3.5 5.1 3.5 2.2 1.9 1.2 0.3 0.4 0.2 0.2 0.2 0.2 0.1 0.2 0.2 0.3 0.6 0.9 1.1 1.4 0.8 0.5 0.4 0.4 0.9 1.1 1.0 1.1 4.2 1.4 5.4 5.7 7.8 6.2 11.2 13.2 13.3 11.8 12.3 15.4 12.6
2.0 0.3 0.4 11.8 2.6 0.9 2.2 2.6 1.8 0.4 0.2 0.4 4.8 2.2 1.2 0.5 1.3 1.2 1.6 0.6 0.4 0.3 0.6 1.2 2.3 1.8 0.9 0.7 1.6 1.4 2.2 2.8 2.8 5.9 6.0 6.7 6.3 3.8 2.1 2.3 2.8 4.1 3.5 4.7 4.6 5.4 6.7 9.3 10.8 12.5 11.8 14.1 13.7 16.2
1.9 0.2 1.9 3.4 8.2 3.5 4.5 3.1 2.6 1.1 0.1 0.3 0.2 0.4 0.9 2.7 4.7 1.9 1.0 0.9 1.8 6.5 9.8 6.7 7.9 7.3 14.2 10.6 10.7 6.8 5.6 7.0 6.4 9.0 11.8 9.1 5.8 5.5 6.4 8.3 8.0 7.5 7.1 14.4 9.8 4.8 7.4 10.2 11.3 15.7 14.9 15.6 14.8 17.4
1.4 2.2 4.2 1.5 6.4 9.0 8.4 7.2 5.6 2.1 2.4 6.9 5.7 7.4 7.3 5.2 5.9 4.6 3.4 4.1 3.4 13.4 16.1 20.4 19.3 16.7 15.4 11.2 17.0 16.8 11.8 13.8 6.2 3.7 3.4 6.3 7.8 10.1 10.6 9.4 9.0 10.6 11.6 11.9 16.0 12.8 13.0 15.7 15.1 17.0 14.3 14.0 15.8 16.8
4.3 9.1 13.8 8.9 12.5 16.2 4.6 13.9 10.9 10.5 12.5 13.0 16.7 12.0 15.2 12.7 8.5 7.3 9.8 12.4 14.0 16.2 6.6 10.6 18.7 8.6 6.3 5.4 11.0 7.8 7.4 6.2 6.5 6.8 5.9 8.7 10.0 11.5 6.4 5.5 14.5 14.5 12.5 14.3 12.2 13.8 12.0 15.3 16.3 17.9 17.6 16.4 16.4 15.0
17.1 11.0 7.2 9.1 20.1 9.2 10.0 11.1 2.3 12.2 11.3 14.6 18.0 14.4 14.3 11.9 9.8 12.2 4.2 11.6 15.0 11.9 10.0 12.3 12.5 13.9 7.8 6.9 6.6 8.1 8.0 7.8 9.2 8.8 7.8 7.7 7.7 8.0 9.0 13.1 15.7 13.3 8.7 12.3 14.3 14.4 12.1 9.8 12.8 13.2 15.3 18.3 17.7 17.1
Water_Equivalent
nan nan nan nan nan nan nan nan nan nan nan nan nan nan nan nan nan 0.00 0.00 0.00 0.00 0.02 0.04 0.00 0.00 0.01 0.00 0.00 0.10 0.00 0.16 0.09 0.09 0.12 0.31 0.18 0.09 0.00 0.01 0.01 0.00 0.01 0.10 0.20 0.14 0.54 0.49 0.00 0.00 0.00 0.02 0.00 0.00 0.00
nan nan nan nan nan nan nan nan nan nan nan nan nan nan nan nan nan nan 0.00 0.00 0.00 0.00 0.16 0.00 0.00 0.00 0.00 0.00 0.00 0.00 0.02 0.00 0.00 0.08 0.12 0.03 0.08 0.00 0.00 0.14 0.00 0.10 0.01 0.10 0.02 0.07 0.00 0.00 0.00 0.00 0.00 0.00 0.00 0.00
nan nan nan nan nan nan nan nan nan nan nan nan nan nan nan nan nan nan 0.00 0.00 0.00 0.10 0.15 0.06 0.06 0.00 0.00 0.00 0.00 0.05 0.00 0.00 0.00 0.00 0.01 0.01 0.01 0.00 0.07 0.02 0.00 0.00 0.00 0.04 0.01 0.00 0.00 0.00 0.00 0.00 0.00 0.00 0.00 0.00
nan nan nan nan nan nan nan nan nan nan nan nan nan nan nan nan nan nan 0.00 0.00 0.00 0.00 1.01 0.39 0.00 0.00 0.00 0.00 0.00 0.00 0.00 0.00 0.00 0.00 0.03 0.09 0.18 0.00 0.03 0.02 0.01 0.01 0.00 0.00 0.00 0.00 0.00 0.00 0.00 0.00 0.00 0.00 0.00 0.00
nan nan nan nan nan nan nan nan nan nan nan nan nan nan nan nan nan nan 0.00 0.00 0.00 0.06 1.22 0.36 0.00 0.00 0.00 0.00 0.00 0.00 0.00 0.00 0.00 0.02 0.11 0.08 0.00 0.01 0.03 0.03 0.04 0.00 0.00 0.09 0.08 0.00 0.00 0.00 0.00 0.00 0.00 0.00 0.00 0.00
nan nan nan nan nan nan nan nan nan nan nan nan nan nan nan nan nan 0.00 0.12 0.00 0.00 0.00 0.39 1.03 0.17 0.00 0.00 0.00 0.00 0.00 0.00 0.00 0.00 0.00 0.06 0.01 0.00 0.02 0.15 0.10 0.00 0.00 0.00 0.00 0.00 0.00 0.00 0.00 0.00 0.00 0.00 0.00 0.00 0.00
nan nan nan nan nan nan nan nan nan nan nan nan nan nan nan nan 0.00 0.00 0.01 0.00 nan 0.00 0.44 1.71 0.49 0.03 0.00 0.00 0.00 0.01 0.00 0.00 0.00 0.05 0.11 0.05 0.01 0.01 0.14 0.07 0.00 0.00 0.00 0.00 0.00 0.00 0.00 0.00 0.00 0.00 0.00 0.00 0.00 0.00
nan nan nan nan nan nan nan nan nan nan nan nan nan nan nan nan nan 0.00 0.00 nan nan 0.01 0.09 1.51 1.00 0.11 0.00 0.14 0.19 0.01 0.10 0.04 0.05 0.06 0.06 0.03 0.01 0.06 0.13 0.00 0.00 0.00 0.00 0.00 0.00 0.00 0.00 0.00 0.00 0.00 0.00 0.00 0.00 0.00
nan nan nan nan nan nan nan nan nan nan nan nan nan nan 0.00 0.00 0.05 0.00 nan nan 0.00 0.08 1.45 0.63 0.25 1.11 0.00 0.03 0.04 0.09 0.06 0.35 0.03 0.10 0.03 0.00 0.06 0.16 0.00 0.00 0.00 0.00 0.00 0.00 0.00 0.00 0.00 0.00 0.00 0.00 0.00 0.00 0.00 0.00
nan nan nan nan nan nan nan nan nan nan nan nan 0.00 0.09 8.58 0.11 nan nan 0.00 0.17 0.27 0.09 0.10 0.25 0.00 0.19 0.05 0.08 0.30 0.30 0.10 0.34 0.56 0.07 0.00 0.08 0.00 0.00 0.00 0.00 0.00 0.00 0.00 0.00 0.00 0.00 0.00 0.00 0.00 0.00 0.00 0.00 0.00 0.00
nan nan nan nan nan nan nan nan nan nan nan 0.00 5.43 3.31 0.03 nan 0.01 0.47 6.64 4.99 4.59 3.05 0.11 0.01 0.00 0.15 0.00 0.29 0.34 0.04 0.28 0.23 0.66 0.19 0.14 0.11 0.11 0.09 0.00 0.00 0.00 0.00 0.00 0.00 0.00 0.00 0.00 0.00 0.00 0.00 0.00 0.00 0.00 0.00
nan nan nan nan nan nan nan nan nan 0.00 0.00 0.06 0.07 0.00 0.00 0.77 3.25 5.42 3.12 2.07 1.05 0.49 0.04 0.00 0.00 0.03 0.05 0.00 0.21 0.28 0.19 0.23 0.15 0.02 0.56 0.27 0.06 0.00 0.00 0.00 0.00 0.00 0.00 0.00 0.00 0.00 0.00 0.00 0.00 0.00 0.00 0.00 0.00 0.00
nan nan nan nan nan nan nan nan nan nan nan 0.00 0.05 1.61 2.32 3.81 8.79 2.48 2.59 1.30 0.76 0.12 0.04 0.01 0.20 0.01 0.07 0.02 0.09 0.05 0.29 1.10 0.00 1.00 0.11 0.07 0.01 0.00 0.00 0.00 0.00 0.00 0.00 0.00 0.00 0.00 0.00 0.00 0.00 0.00 0.00 0.00 0.00 0.00
nan nan nan nan nan nan nan nan nan 0.00 0.00 1.15 2.59 8.01 3.14 2.37 0.65 0.16 0.06 0.08 0.05 0.02 0.01 0.01 0.03 0.06 0.03 0.13 0.10 0.08 0.05 0.05 0.97 0.14 0.15 0.09 0.01 0.00 0.00 0.00 0.00 0.00 0.00 0.00 0.00 0.00 0.00 0.00 0.00 0.00 0.02 0.10 0.08 0.10
nan nan nan nan nan nan nan nan nan 0.00 0.04 1.94 0.73 3.37 0.96 0.10 0.07 0.06 0.02 0.01 0.00 0.00 0.02 0.06 0.16 0.11 0.26 0.36 0.10 0.04 0.59 0.37 0.11 0.14 0.09 0.04 0.00 0.00 0.00 0.00 0.00 0.00 0.00 0.00 0.00 0.00 0.03 0.06 0.02 0.03 0.11 0.00 0.01 0.54
nan nan 0.00 nan nan nan nan nan 0.00 0.00 0.25 0.54 0.48 0.38 0.09 0.29 0.58 0.25 0.08 0.04 0.00 0.04 0.01 0.07 0.22 0.75 0.51 0.13 0.09 0.04 0.03 0.08 0.11 0.07 0.02 0.01 0.00 0.00 0.00 0.00 0.00 0.00 0.00 0.00 0.00 0.00 0.00 0.10 0.10 0.00 0.00 0.01 0.66 0.41
nan 0.13 nan nan nan nan nan 0.00 0.15 1.39 1.11 0.33 1.28 0.11 0.13 0.11 0.20 0.13 0.02 0.00 0.00 0.08 0.54 0.64 0.25 0.11 0.13 0.20 0.01 0.08 0.36 0.21 0.07 0.05 0.02 0.00 0.00 0.00 0.00 0.00 0.01 0.00 0.00 0.00 0.00 0.00 0.00 0.00 0.00 0.00 0.00 0.00 0.00 0.00
0.03 0.00 nan nan nan nan 0.23 0.18 0.91 1.08 1.11 0.23 1.35 0.27 0.11 0.12 0.16 0.11 0.05 0.00 0.07 0.21 0.16 0.43 0.19 0.06 0.32 0.03 0.14 0.07 0.05 0.04 0.03 0.06 0.05 0.01 0.00 0.00 0.00 0.00 0.00 0.00 0.00 0.00 0.00 0.00 0.00 0.00 0.00 0.05 0.00 0.00 0.01 0.01
0.00 0.00 nan nan 0.00 0.27 2.26 1.01 0.14 0.70 0.67 0.17 0.10 0.07 0.07 0.10 0.05 0.01 0.00 0.00 0.01 0.00 0.23 0.21 0.33 0.12 0.09 0.05 0.07 0.07 0.07 0.04 0.05 0.06 0.04 0.00 0.00 0.00 0.00 0.00 0.00 0.00 0.00 0.00 0.00 0.03 0.03 0.00 0.02 0.02 0.03 0.02 0.04 0.04
nan nan nan nan nan 0.03 0.50 1.00 0.00 0.16 0.28 0.32 0.02 0.06 0.09 0.09 0.04 0.09 0.06 0.02 0.00 0.07 0.27 0.17 0.08 0.05 0.05 0.06 0.04 0.04 0.04 0.03 0.01 0.06 0.08 0.09 0.08 0.00 0.00 0.02 0.05 0.01 0.02 0.00 0.03 0.01 0.01 0.00 0.00 0.00 0.03 0.05 0.09 0.14
nan nan nan 0.00 0.24 0.00 0.01 0.35 0.06 0.20 0.14 0.21 0.08 0.00 0.40 0.10 0.20 0.37 0.43 0.02 0.36 0.21 0.17 0.07 0.09 0.09 0.02 0.08 0.04 0.03 0.04 0.00 0.02 0.01 0.04 0.08 0.07 0.03 0.04 0.05 0.05 0.06 0.06 0.05 0.09 0.07 0.03 0.05 0.04 0.02 0.37 0.82 0.31 0.22
0.01 nan 0.04 0.00 0.09 0.11 0.21 0.00 0.02 0.00 0.12 0.20 0.06 0.05 0.42 1.03 0.86 0.54 0.15 0.39 0.24 0.09 0.08 0.08 0.09 0.06 0.07 0.04 0.06 0.00 0.00 0.00 0.00 0.02 0.01 0.01 0.05 0.04 0.05 0.06 0.05 0.09 0.08 0.11 0.07 0.13 0.07 0.01 0.05 0.09 0.34 1.08 0.26 0.30
nan 0.00 0.01 0.06 0.71 1.16 2.58 0.00 0.10 0.02 0.30 0.30 0.13 0.22 0.38 0.48 0.38 0.03 0.74 0.17 0.10 0.09 0.06 0.06 0.01 0.00 0.03 0.00 0.00 0.00 0.00 0.00 0.01 0.04 0.05 0.03 0.02 0.05 0.05 0.06 0.06 0.18 0.16 0.11 0.07 0.11 0.15 0.03 0.21 0.85 0.45 0.60 0.63 2.38
nan 0.16 1.73 0.93 0.85 3.16 0.32 1.03 0.08 0.12 0.17 0.30 0.33 0.20 0.13 0.35 0.13 0.40 0.41 0.17 0.09 0.06 0.06 0.00 0.01 0.04 0.02 0.00 0.01 0.03 0.01 0.00 0.00 0.00 0.01 0.01 0.03 0.05 0.02 0.02 0.06 0.07 0.07 0.07 0.10 0.18 0.23 1.11 1.15 0.36 1.64 3.53 4.59 3.88
2.34 3.98 1.50 4.34 0.36 1.78 1.43 0.48 0.12 0.18 0.53 0.46 0.26 0.37 0.85 0.08 0.66 0.43 0.22 0.28 0.09 0.11 0.08 0.05 0.01 0.00 0.00 0.02 0.00 0.01 0.00 0.00 0.01 0.03 0.02 0.01 0.05 0.05 0.04 0.02 0.04 0.05 0.06 0.39 0.76 1.56 2.00 2.07 2.09 2.05 1.21 4.47 1.35 1.76
5.51 3.23 3.30 0.33 1.31 0.55 0.24 1.00 1.02 1.12 0.55 0.67 0.24 0.25 0.14 0.44 0.58 0.72 0.25 0.17 0.17 0.12 0.65 0.24 0.10 0.05 0.04 0.00 0.02 0.04 0.04 0.02 0.03 0.05 0.04 0.01 0.03 0.16 0.29 0.31 0.21 0.15 0.11 0.27 0.87 2.55 1.79 2.27 2.83 1.28 2.70 1.42 2.16 3.76
4.15 3.14 0.10 0.00 0.01 0.00 0.86 0.69 0.06 0.39 0.69 1.08 0.36 0.53 0.62 2.00 1.27 0.27 0.18 0.11 0.09 0.11 0.08 0.06 0.05 0.04 0.05 0.05 0.05 0.08 0.07 0.07 0.04 0.07 0.07 0.05 0.06 0.07 0.20 0.70 0.30 0.18 0.12 0.33 0.66 2.93 3.26 3.30 3.62 2.28 2.97 3.14 3.54 3.97
0.47 0.06 1.40 0.25 1.07 0.08 0.87 0.60 0.60 0.71 0.08 0.12 0.38 0.99 1.47 1.02 0.54 0.42 0.30 0.12 0.15 0.08 0.08 0.08 0.07 0.05 0.07 0.09 0.11 0.19 0.30 0.32 0.41 0.25 0.18 0.14 0.13 0.28 0.32 0.32 0.34 1.39 0.48 1.83 2.21 2.92 2.19 3.81 4.32 4.30 3.69 3.75 4.36 3.86
0.57 0.12 0.15 1.76 0.67 0.27 0.64 0.80 0.55 0.15 0.09 0.16 1.56 0.64 0.33 0.15 0.37 0.32 0.37 0.19 0.16 0.14 0.20 0.38 0.63 0.67 0.29 0.23 0.51 0.44 0.66 0.85 0.78 1.27 1.59 1.50 1.57 1.02 0.54 0.63 0.77 1.15 1.02 1.42 1.51 1.74 2.04 2.83 3.41 3.89 3.98 4.40 4.14 4.69
0.49 0.09 0.62 0.92 1.26 0.73 1.31 0.93 0.88 0.40 0.04 0.11 0.08 0.12 0.20 0.62 1.13 0.45 0.33 0.31 0.55 2.10 3.59 2.43 2.52 2.29 4.16 2.81 2.39 1.66 1.59 2.16 1.86 2.75 3.23 2.21 1.52 1.39 1.68 2.35 2.33 2.20 2.08 4.72 2.57 1.11 2.29 2.90 3.52 4.62 4.00 3.65 3.89 4.27
0.30 0.72 1.27 0.39 1.47 2.57 2.49 2.55 2.18 0.78 0.89 2.48 2.05 2.31 1.82 1.17 1.41 1.05 0.76 1.06 1.02 4.83 5.35 5.87 5.57 5.59 4.42 2.74 4.55 4.09 2.59 3.93 1.51 0.91 0.87 1.54 1.99 2.79 2.99 2.57 2.57 3.09 3.36 3.25 4.31 2.94 2.78 3.54 3.82 3.99 2.82 2.63 2.69 2.84
1.45 3.04 2.82 1.69 2.68 4.59 1.53 4.82 3.66 3.30 4.22 3.89 4.81 3.82 4.49 3.56 1.99 1.54 2.03 2.99 3.84 4.43 2.16 3.10 5.29 2.12 1.78 1.54 3.19 2.19 2.43 1.37 1.43 1.50 1.50 2.09 2.57 3.05 1.63 1.36 3.98 3.97 3.24 3.69 3.02 3.21 2.62 3.38 3.26 3.67 3.19 2.93 2.74 2.42
5.29 3.38 2.14 2.15 4.84 2.52 2.88 3.51 0.74 3.45 2.90 3.65 4.53 3.79 3.83 2.94 1.91 2.42 0.95 2.82 3.72 3.54 2.77 3.82 3.95 4.78 2.24 1.91 1.69 1.99 2.36 1.77 2.41 2.92 2.56 2.54 2.56 2.51 2.12 3.41 4.23 3.28 1.97 2.87 3.29 3.00 2.60 1.95 2.15 2.47 2.62 3.04 2.80 2.58
SL_Ratio
nan nan nan nan nan nan nan nan nan nan nan nan nan nan nan nan nan nan nan nan nan 4.0 2.6 nan nan 2.5 nan nan 3.5 5.0 2.9 2.5 2.5 2.6 2.9 2.7 2.7 5.0 3.2 3.6 5.0 3.0 3.3 3.2 3.2 3.5 4.4 nan nan 3.3 2.6 nan nan nan
nan nan nan nan nan nan nan nan nan nan nan nan nan nan nan nan nan nan nan nan nan nan 2.6 nan nan nan nan nan 1.7 nan 3.9 nan 2.5 2.6 2.6 2.7 2.5 2.2 2.5 2.8 nan 3.0 3.1 2.9 3.1 3.0 nan nan nan nan nan nan nan nan
nan nan nan nan nan nan nan nan nan nan nan nan nan nan nan nan nan nan nan nan nan 2.5 2.5 2.6 2.5 nan nan nan nan 3.1 2.7 nan nan nan 2.9 2.6 3.0 nan 2.8 2.9 2.2 nan nan 2.5 3.0 nan nan nan nan nan nan nan nan nan
nan nan nan nan nan nan nan nan nan nan nan nan nan nan nan nan nan nan nan nan nan 2.5 3.5 2.8 nan nan nan nan nan nan nan nan nan nan 2.8 2.8 2.6 nan 2.6 2.5 2.6 2.6 nan nan nan nan nan nan nan nan nan nan nan nan
nan nan nan nan nan nan nan nan nan nan nan nan nan nan nan nan nan nan nan nan nan 3.3 3.7 3.3 0.0 nan nan nan nan nan nan nan nan 2.7 2.6 2.6 nan 2.7 2.6 2.9 3.2 nan nan 2.8 2.7 nan nan nan nan nan nan nan nan nan
nan nan nan nan nan nan nan nan nan nan nan nan nan nan nan nan nan nan 2.5 nan nan nan 3.2 4.2 2.6 nan nan nan nan nan nan nan nan 2.3 2.6 2.5 nan 2.5 2.9 3.2 nan nan nan nan nan nan nan nan nan nan nan nan nan nan
nan nan nan nan nan nan nan nan nan nan nan nan nan nan nan nan nan nan 3.0 nan nan nan 3.0 4.4 3.6 2.5 nan nan 2.7 2.4 nan nan nan 2.5 2.5 2.5 2.5 2.4 2.7 2.9 nan nan nan nan nan nan nan nan nan nan nan nan nan nan
nan nan nan nan nan nan nan nan nan nan nan nan nan nan nan nan nan nan nan nan nan 3.3 4.1 4.6 4.2 3.1 nan 2.6 2.6 2.5 2.5 2.5 2.5 2.5 2.6 2.9 2.6 2.7 3.2 nan nan nan nan nan nan nan nan nan nan nan nan nan nan nan
nan nan nan nan nan nan nan nan nan nan nan nan nan nan nan nan 2.5 5.0 nan nan nan 4.1 4.6 4.7 4.1 3.6 nan 2.5 2.6 2.5 2.5 3.2 3.0 3.0 2.9 nan 3.1 2.8 nan nan nan nan nan nan nan nan nan nan nan nan nan nan nan nan
nan nan nan nan nan nan nan nan nan nan nan nan nan 2.5 2.5 2.5 nan nan 2.3 2.5 2.9 2.5 3.2 4.9 nan 3.5 2.5 2.5 2.6 2.6 2.5 3.8 4.3 3.0 2.7 3.0 2.7 nan nan nan nan nan nan nan nan nan nan nan nan nan nan nan nan nan
nan nan nan nan nan nan nan nan nan nan nan nan 2.5 2.8 2.4 nan 2.4 3.2 3.7 4.0 3.8 4.4 3.5 3.1 nan 3.1 nan 3.3 3.5 2.6 3.7 3.7 5.0 3.2 3.1 3.2 3.1 2.5 nan nan nan nan nan nan nan nan nan nan nan nan nan nan nan nan
nan nan nan nan nan nan nan nan nan nan nan 2.5 2.5 nan 2.5 3.4 4.1 4.9 5.4 5.2 5.3 5.7 3.7 nan 0.0 2.7 2.6 nan 3.1 4.4 4.3 3.4 6.6 2.7 3.4 3.5 2.8 nan nan nan nan nan nan nan nan nan nan nan nan nan nan nan nan nan
nan nan nan nan nan nan nan nan nan nan nan 5.0 2.5 3.2 4.3 4.7 5.5 6.0 6.7 5.9 4.3 3.3 2.7 2.5 2.5 2.4 2.5 2.5 2.7 2.6 3.9 3.2 2.3 3.2 3.5 3.0 2.9 nan nan nan nan nan nan nan nan nan nan nan nan nan nan nan nan nan
nan nan nan nan nan nan nan nan nan nan nan 4.2 4.7 5.2 4.4 5.1 5.2 3.8 2.9 4.1 2.8 2.5 5.9 4.6 3.0 2.5 2.5 3.3 2.5 4.0 2.7 2.7 3.3 3.6 3.5 3.0 2.9 nan nan nan nan nan nan nan nan nan nan nan nan nan 2.4 2.5 2.9 3.5
nan nan nan nan nan nan nan nan nan nan 2.6 5.0 5.0 7.7 3.7 2.8 2.5 2.5 2.6 2.8 2.0 nan 5.1 4.4 3.4 4.2 3.9 3.9 3.0 2.9 3.2 2.8 2.6 3.3 3.1 2.6 nan nan nan nan nan nan 2.5 nan nan nan 2.6 2.9 2.7 3.0 3.2 2.5 3.0 3.6
nan nan nan nan nan nan nan nan nan nan 4.2 4.8 5.7 4.9 2.5 2.6 2.5 2.6 2.5 2.6 nan 5.0 4.8 3.7 4.1 4.3 5.7 3.6 4.8 3.0 3.1 2.9 3.1 2.9 2.4 2.6 nan nan nan nan nan nan nan nan nan nan nan 3.2 3.3 0.0 nan 3.2 3.4 3.4
nan 2.5 nan nan nan nan nan nan 2.5 4.4 4.9 5.3 2.8 2.6 2.5 2.6 2.6 3.0 2.4 5.8 0.0 4.8 4.0 5.0 6.4 5.7 4.0 4.5 2.9 3.0 3.2 3.3 2.8 2.6 2.5 nan nan nan nan nan 2.3 nan nan nan nan nan nan nan nan nan nan nan 0.0 2.7
2.8 nan nan nan nan nan 2.6 2.8 4.2 4.8 5.5 3.2 3.1 2.5 2.5 2.5 2.5 2.5 2.5 nan 4.2 4.1 4.9 5.4 5.0 5.1 3.3 3.6 2.7 2.9 2.6 2.5 2.5 2.5 2.5 2.6 nan nan nan nan nan nan nan nan nan nan nan nan 3.3 2.7 nan 5.0 2.6 2.9
nan nan nan nan nan 2.6 3.6 4.3 5.2 5.3 3.9 2.7 2.5 2.5 2.5 2.5 2.5 2.4 0.0 nan 3.9 3.3 4.1 4.7 6.4 3.5 2.7 2.7 2.7 2.7 2.7 2.5 2.5 2.5 2.5 nan nan nan nan nan nan nan nan nan nan 2.8 2.7 nan 2.7 2.8 2.7 2.7 2.9 3.0
nan nan nan nan nan 4.3 5.2 4.5 nan 4.9 4.1 3.7 2.5 2.6 2.6 2.6 2.5 2.5 2.5 2.5 nan 2.5 4.2 4.5 3.2 2.5 2.5 2.5 2.5 2.5 2.5 2.5 2.3 2.7 3.0 2.6 2.6 nan nan 2.5 2.5 2.4 2.5 2.0 2.4 2.5 2.4 0.0 nan 2.7 3.0 3.0 3.0 3.2
nan nan nan 2.5 2.8 10.0 5.3 4.4 5.1 3.9 3.3 3.7 3.2 3.0 4.4 2.9 3.4 3.4 3.0 2.5 3.6 3.5 4.3 2.5 2.5 2.5 2.5 2.5 2.5 2.5 2.5 nan 2.5 2.4 2.5 3.0 2.5 2.5 2.5 2.5 2.4 2.5 2.5 2.5 2.5 2.6 2.5 2.5 2.7 2.5 2.5 2.5 2.7 2.6
3.0 nan 2.7 nan 5.5 4.6 4.1 5.0 4.8 10.0 3.6 4.1 3.7 3.0 4.4 3.8 3.9 4.0 3.4 4.6 4.4 2.8 2.5 2.5 2.6 2.5 2.5 2.6 2.5 3.3 nan nan nan 2.5 2.5 2.4 2.6 2.5 2.5 2.5 2.5 2.7 2.6 2.6 2.6 2.5 2.5 2.4 2.5 2.5 2.7 2.6 2.9 2.9
nan 7.5 5.0 4.9 4.5 7.3 8.1 5.0 5.9 3.5 5.2 4.1 3.8 4.8 4.5 5.1 4.5 4.6 4.9 4.2 2.9 2.5 2.5 2.5 2.4 nan 2.5 nan nan nan nan nan 2.6 2.5 2.5 2.6 2.5 2.5 2.6 2.6 2.5 2.7 3.0 3.0 2.7 2.7 2.9 2.7 2.9 2.7 2.7 2.8 2.9 3.1
nan 5.1 4.2 4.4 6.2 6.2 4.0 3.2 4.4 4.7 3.8 5.0 5.0 6.1 4.7 5.0 3.8 5.2 5.5 4.3 2.7 2.5 2.5 nan 2.6 2.5 2.6 nan 2.4 2.5 2.4 nan nan 2.3 2.4 2.6 2.5 2.7 2.5 2.6 2.6 2.6 2.7 2.9 2.9 3.0 3.1 2.9 3.0 3.3 3.0 2.8 2.8 3.1
6.3 5.5 3.6 8.8 3.5 3.6 3.6 3.3 5.3 4.3 3.7 4.3 4.6 4.2 3.4 3.6 4.6 4.7 6.1 5.0 2.6 2.7 2.5 2.5 2.5 nan 2.5 2.5 nan 2.4 nan nan 2.2 2.5 2.4 2.6 2.5 2.6 2.7 2.6 2.8 2.7 2.6 2.8 2.8 2.8 2.9 3.0 2.7 2.8 3.1 2.9 3.4 3.3
6.7 2.9 8.2 3.0 2.8 3.5 3.8 3.4 3.3 3.1 3.2 3.6 3.8 4.2 3.0 3.2 4.7 5.2 5.3 3.3 2.5 2.6 2.5 2.5 2.5 2.5 2.5 nan 2.5 2.5 2.5 2.5 2.5 2.5 2.4 2.5 2.5 2.6 3.1 3.4 3.3 3.1 2.6 2.6 2.8 2.7 2.9 2.8 2.9 3.2 3.1 3.2 3.2 3.1
7.5 3.2 3.7 0.0 2.4 3.3 2.9 2.7 3.1 2.9 3.4 3.6 3.2 3.0 2.7 4.0 3.7 4.7 3.7 2.7 2.7 2.6 2.5 2.5 2.5 2.5 2.5 2.5 2.5 2.7 2.5 2.5 2.5 2.6 2.5 2.5 2.5 2.5 2.8 3.1 3.6 3.2 2.6 2.5 2.5 2.5 2.8 3.0 3.0 3.2 3.2 3.1 3.1 3.2
4.2 3.7 5.0 2.5 2.7 2.5 3.2 3.6 3.4 3.4 3.2 3.1 3.1 3.6 3.5 3.4 4.0 4.4 4.1 2.6 2.5 2.5 2.5 2.5 2.5 2.5 2.5 2.6 2.8 3.1 3.1 3.2 3.4 3.1 2.9 2.8 2.8 3.4 3.6 3.2 3.3 3.0 3.0 3.0 2.6 2.7 2.9 2.9 3.1 3.1 3.2 3.3 3.5 3.3
3.5 2.5 2.6 6.7 3.9 3.2 3.5 3.3 3.3 3.1 2.8 2.5 3.0 3.4 3.7 3.6 3.6 3.8 4.4 3.0 2.5 2.5 2.8 3.1 3.6 2.7 3.0 2.9 3.0 3.1 3.3 3.3 3.6 4.6 3.7 4.4 4.0 3.7 3.8 3.7 3.7 3.6 3.4 3.3 3.0 3.1 3.3 3.3 3.2 3.2 3.0 3.2 3.3 3.5
3.8 2.5 3.1 3.7 6.5 4.8 3.4 3.3 3.0 2.7 2.6 2.6 2.6 3.4 4.2 4.3 4.2 4.1 3.1 3.0 3.2 3.1 2.7 2.8 3.1 3.2 3.4 3.8 4.5 4.1 3.5 3.2 3.5 3.3 3.7 4.1 3.8 3.9 3.8 3.5 3.4 3.4 3.4 3.0 3.8 4.3 3.2 3.5 3.2 3.4 3.7 4.3 3.8 4.1
4.6 3.0 3.3 3.9 4.3 3.5 3.4 2.8 2.6 2.7 2.6 2.8 2.8 3.2 4.0 4.5 4.2 4.4 4.5 3.9 3.3 2.8 3.0 3.5 3.5 3.0 3.5 4.1 3.7 4.1 4.6 3.5 4.1 4.1 4.0 4.1 3.9 3.6 3.6 3.7 3.5 3.4 3.5 3.7 3.7 4.3 4.7 4.4 4.0 4.3 5.1 5.3 5.9 5.9
3.0 3.0 4.9 5.3 4.6 3.5 3.0 2.9 3.0 3.2 3.0 3.3 3.5 3.1 3.4 3.6 4.3 4.7 4.8 4.1 3.6 3.7 3.1 3.4 3.5 4.0 3.6 3.5 3.4 3.6 3.1 4.5 4.6 4.5 3.9 4.2 3.9 3.8 3.9 4.1 3.6 3.6 3.9 3.9 4.0 4.3 4.6 4.5 5.0 4.9 5.5 5.6 6.0 6.2
3.2 3.3 3.4 4.2 4.2 3.7 3.5 3.2 3.2 3.5 3.9 4.0 4.0 3.8 3.7 4.1 5.1 5.0 4.4 4.1 4.0 3.4 3.6 3.2 3.2 2.9 3.5 3.6 3.9 4.1 3.4 4.4 3.8 3.0 3.0 3.0 3.0 3.2 4.3 3.9 3.7 4.1 4.4 4.3 4.4 4.8 4.7 5.0 6.0 5.3 5.9 6.0 6.3 6.6